Date String (YYYY-MM-DD hh:mm:ss) UTC,Instrument flags,Ambient pressure (hPa),Sample flow (lpm),Bypass flow (lpm),Sample temperature (°C),Ambient temperature (°C),ASC tube jacket temperature (°C),LED temperature (°C),Box temperature (°C),Sample RH (%),Span deviation,Mass concentration (μg/m³),Mass concentration (μg/m³),Mass concentration (μg/m³)
DateTimeUTC,F1_M11,P_M11,Q1_M11,Q2_M11,T1_M11,T2_M11,T3_M11,T4_M11,T5_M11,U1_M11,ZSPAN_M11,X2_M11,X0_M11,X1_M11
2023-04-10 20:00:00,,0837.2,5.00,0.00,27.5,26.3,00.0,35.7,29.1,10.8,0000.0,0005.06,0015.49,0003.45
2023-04-10 20:01:00,,0837.2,4.99,0.00,27.5,26.3,00.0,35.7,29.1,10.9,0000.0,0005.05,0015.41,0003.46
2023-04-10 20:02:00,,0837.2,4.99,0.00,27.5,26.3,00.0,35.7,29.1,10.8,0000.0,0005.03,0015.03,0003.47
2023-04-10 20:03:00,,0837.2,5.00,0.00,27.5,26.3,00.0,35.8,29.2,10.9,0000.0,0005.09,0015.60,0003.48
2023-04-10 20:04:00,,0837.2,5.01,0.00,27.6,26.3,00.0,35.8,29.2,11.0,0000.0,0005.10,0015.96,0003.48
2023-04-10 20:05:00,,0837.2,5.00,0.00,27.6,26.4,00.0,35.8,29.2,11.1,0000.0,0005.07,0017.47,0003.48
2023-04-10 20:06:00,,0837.2,5.00,0.00,27.6,26.4,00.0,35.8,29.2,10.8,0000.0,0005.10,0018.10,0003.49
2023-04-10 20:07:00,,0837.2,5.01,0.00,27.6,26.4,00.0,35.8,29.3,11.1,0000.0,0005.13,0018.15,0003.50
2023-04-10 20:08:00,,0837.2,5.00,0.00,27.6,26.4,00.0,35.8,29.3,11.1,0000.0,0005.12,0018.40,0003.50
2023-04-10 20:09:00,,0837.2,5.00,0.00,27.7,26.5,00.0,35.8,29.3,10.8,0000.0,0005.15,0018.12,0003.51
2023-04-10 20:10:00,,0837.2,5.01,0.00,27.7,26.5,00.0,35.9,29.3,10.7,0000.0,0005.16,0017.83,0003.52
2023-04-10 20:11:00,,0837.2,5.00,0.00,27.7,26.5,00.0,35.9,29.3,10.9,0000.0,0005.16,0017.00,0003.52
2023-04-10 20:12:00,,0837.2,4.99,0.00,27.7,26.5,00.0,35.9,29.3,10.8,0000.0,0005.17,0016.92,0003.52
2023-04-10 20:13:00,,0837.2,5.00,0.00,27.7,26.5,00.0,35.9,29.3,10.8,0000.0,0005.20,0017.05,0003.51
2023-04-10 20:14:00,,0837.2,5.00,0.00,27.7,26.5,00.0,35.9,29.4,11.0,0000.0,0005.24,0016.40,0003.50
2023-04-10 20:15:00,,0837.1,5.00,0.00,27.8,26.6,00.0,36.0,29.4,10.7,0000.0,0005.27,0016.84,0003.51
2023-04-10 20:16:00,,0837.1,5.00,0.00,27.8,26.6,00.0,36.0,29.4,10.7,0000.0,0005.23,0015.95,0003.49
2023-04-10 20:17:00,,0837.1,5.00,0.00,27.8,26.6,00.0,36.0,29.4,10.9,0000.0,0005.20,0015.22,0003.49
2023-04-10 20:18:00,,0837.1,5.00,0.00,27.8,26.6,00.0,36.0,29.4,10.8,0000.0,0005.15,0015.53,0003.48
2023-04-10 20:19:00,,0837.1,5.00,0.00,27.8,26.6,00.0,36.0,29.5,10.9,0000.0,0005.15,0015.31,0003.47
2023-04-10 20:20:00,,0837.1,5.00,0.00,27.9,26.7,00.0,36.0,29.5,10.8,0000.0,0005.15,0015.26,0003.45
2023-04-10 20:21:00,,0837.0,5.00,0.00,27.9,26.7,00.0,36.1,29.5,10.8,0000.0,0005.10,0015.15,0003.43
2023-04-10 20:22:00,,0837.1,5.00,0.00,27.9,26.7,00.0,36.1,29.5,10.4,0000.0,0005.06,0015.65,0003.39
2023-04-10 20:23:00,,0837.0,5.00,0.00,27.9,26.7,00.0,36.1,29.5,10.0,0000.0,0005.02,0014.95,0003.36
2023-04-10 20:24:00,,0837.0,5.00,0.00,27.9,26.7,00.0,36.1,29.5,10.1,0000.0,0005.02,0014.03,0003.33
2023-04-10 20:25:00,,0836.9,5.00,0.00,27.9,26.8,00.0,36.1,29.5,09.8,0000.0,0004.97,0013.96,0003.30
2023-04-10 20:26:00,,0837.0,5.00,0.00,27.9,26.8,00.0,36.2,29.6,09.9,0000.0,0004.99,0013.45,0003.28
2023-04-10 20:27:00,,0837.0,5.00,0.00,28.0,26.8,00.0,36.2,29.6,10.0,0000.0,0005.01,0013.28,0003.27
2023-04-10 20:28:00,,0837.0,5.00,0.00,28.0,26.8,00.0,36.2,29.6,10.0,0000.0,0004.95,0012.68,0003.24
2023-04-10 20:29:00,,0836.9,5.00,0.00,28.0,26.8,00.0,36.2,29.6,10.1,0000.0,0004.91,0012.13,0003.20
2023-04-10 20:30:00,,0836.9,5.01,0.00,28.0,26.8,00.0,36.2,29.6,10.2,0000.0,0004.87,0012.34,0003.17
2023-04-10 20:31:00,,0836.9,5.00,0.00,28.0,26.9,00.0,36.2,29.6,10.2,0000.0,0004.87,0013.09,0003.14
2023-04-10 20:32:00,,0836.9,5.00,0.00,28.1,26.9,00.0,36.3,29.6,10.1,0000.0,0004.88,0013.40,0003.13
2023-04-10 20:33:00,,0836.8,5.00,0.00,28.1,26.9,00.0,36.3,29.7,10.1,0000.0,0004.87,0014.19,0003.13
2023-04-10 20:34:00,,0836.9,5.00,0.00,28.1,26.9,00.0,36.3,29.7,10.1,0000.0,0004.87,0014.44,0003.13
2023-04-10 20:35:00,,0836.9,5.01,0.00,28.1,26.9,00.0,36.3,29.7,09.9,0000.0,0004.86,0014.47,0003.13
2023-04-10 20:36:00,,0836.9,5.00,0.00,28.1,27.0,00.0,36.3,29.7,10.1,0000.0,0004.83,0014.43,0003.13
2023-04-10 20:37:00,,0836.9,4.99,0.00,28.2,27.0,00.0,36.3,29.7,09.9,0000.0,0004.75,0014.83,0003.13
2023-04-10 20:38:00,,0836.8,4.99,0.00,28.2,27.0,00.0,36.4,29.8,09.7,0000.0,0004.77,0014.58,0003.13
2023-04-10 20:39:00,,0836.8,5.00,0.00,28.2,27.0,00.0,36.4,29.8,09.9,0000.0,0004.86,0015.60,0003.16
2023-04-10 20:40:00,,0836.8,5.00,0.00,28.2,27.0,00.0,36.4,29.8,09.9,0000.0,0004.96,0016.04,0003.19
2023-04-10 20:41:00,,0836.8,5.00,0.00,28.2,27.0,00.0,36.4,29.8,09.7,0000.0,0004.98,0015.85,0003.21
2023-04-10 20:42:00,,0836.8,5.00,0.00,28.2,27.0,00.0,36.4,29.8,09.5,0000.0,0004.97,0015.50,0003.24
2023-04-10 20:43:00,,0836.8,5.00,0.00,28.2,27.0,00.0,36.4,29.8,09.2,0000.0,0004.96,0015.48,0003.24
2023-04-10 20:44:00,,0836.7,5.00,0.00,28.3,27.1,00.0,36.5,29.8,08.9,0000.0,0004.92,0014.04,0003.22
2023-04-10 20:45:00,,0836.7,5.00,0.00,28.3,27.1,00.0,36.5,29.8,09.0,0000.0,0004.87,0013.64,0003.20
2023-04-10 20:46:00,,0836.7,5.00,0.00,28.3,27.1,00.0,36.5,29.9,09.0,0000.0,0004.84,0013.69,0003.19
2023-04-10 20:47:00,,0836.6,5.00,0.00,28.3,27.1,00.0,36.5,29.9,08.9,0000.0,0004.83,0013.74,0003.17
2023-04-10 20:48:00,,0836.6,5.01,0.00,28.3,27.1,00.0,36.5,29.9,08.9,0000.0,0004.81,0013.90,0003.15
2023-04-10 20:49:00,,0836.6,5.00,0.00,28.3,27.1,00.0,36.5,29.9,08.8,0000.0,0004.80,0014.29,0003.13
2023-04-10 20:50:00,,0836.6,5.00,0.00,28.4,27.2,00.0,36.6,29.9,08.8,0000.0,0004.68,0013.51,0003.08
2023-04-10 20:51:00,,0836.6,5.00,0.00,28.4,27.2,00.0,36.6,29.9,09.0,0000.0,0004.55,0013.12,0002.99
2023-04-10 20:52:00,,0836.6,5.00,0.00,28.4,27.2,00.0,36.6,30.0,08.8,0000.0,0004.52,0012.95,0002.92
2023-04-10 20:53:00,,0836.6,4.99,0.00,28.4,27.2,00.0,36.6,30.0,08.6,0000.0,0004.44,0013.02,0002.86
2023-04-10 20:54:00,,0836.6,5.00,0.00,28.4,27.2,00.0,36.6,30.0,08.7,0000.0,0004.37,0012.56,0002.79
2023-04-10 20:55:00,,0836.6,5.01,0.00,28.4,27.2,00.0,36.7,30.0,08.9,0000.0,0004.35,0012.69,0002.76
2023-04-10 20:56:00,,0836.6,5.01,0.00,28.5,27.3,00.0,36.7,30.0,08.6,0000.0,0004.35,0013.43,0002.75
2023-04-10 20:57:00,,0836.6,5.01,0.00,28.5,27.3,00.0,36.7,30.0,08.6,0000.0,0004.36,0013.57,0002.73
2023-04-10 20:58:00,,0836.6,5.00,0.00,28.5,27.3,00.0,36.7,30.0,08.6,0000.0,0004.35,0013.51,0002.71
2023-04-10 20:59:00,,0836.6,5.00,0.00,28.5,27.3,00.0,36.7,30.1,08.6,0000.0,0004.38,0012.91,0002.70
